Temp
70 70 69 69 69 68 68 67 67 65 66 66 66 66 65 64 63 63 62 62 62 61 62 62 61 62 63 64 64 63 61 60 56 62 65 65 62 63 64 64 66 67 69
71 70 69 69 68 67 66 65 64 63 65 66 65 64 63 63 62 62 61 61 60 60 60 60 60 62 60 61 62 59 60 60 58 55 60 62 61 62 62 61 64 67 67
71 70 68 67 67 65 64 62 63 61 60 64 61 59 60 62 61 61 60 60 59 59 59 58 58 59 59 59 60 60 61 61 60 58 58 62 62 63 60 62 63 63 68
71 69 67 65 66 63 63 62 61 59 60 60 58 62 61 61 60 60 59 58 58 58 58 58 58 58 58 58 59 58 59 58 59 59 59 60 61 62 62 60 60 64 63
68 66 64 62 61 62 62 58 57 61 61 57 57 61 60 60 61 58 58 57 56 57 58 58 59 56 55 55 58 57 57 58 59 59 58 59 59 58 57 60 58 61 62
66 64 61 61 61 60 57 59 54 58 60 57 60 60 59 60 49 50 55 56 56 56 55 57 58 58 57 55 54 53 53 55 55 57 58 56 56 57 59 57 58 56 55
65 64 61 60 60 58 58 56 56 58 54 59 59 59 58 56 47 48 49 57 56 56 56 57 58 60 57 58 56 55 56 52 51 54 54 56 55 56 56 56 56 56 56
65 63 61 61 59 56 54 53 55 54 58 59 59 58 58 56 47 46 48 57 57 56 56 56 56 57 55 53 58 58 60 60 59 59 57 58 58 58 58 58 56 58 60
64 62 62 62 55 53 53 55 55 58 58 58 59 58 56 55 46 46 52 58 57 56 57 56 56 56 46 45 56 55 56 59 58 52 50 48 47 46 49 58 59 57 55
63 62 61 58 54 54 57 55 58 59 59 60 57 57 51 55 44 45 51 61 56 59 58 58 49 49 44 44 54 55 54 55 56 56 58 58 56 57 52 58 59 56 56
64 63 58 55 54 55 56 58 57 58 58 57 56 56 56 54 53 44 45 59 59 59 59 59 59 44 43 43 43 53 50 50 55 58 59 60 60 61 62 60 59 57 55
60 57 54 54 57 59 57 57 57 56 55 55 55 55 57 56 46 45 43 44 47 56 56 58 57 42 42 43 49 42 43 49 58 57 57 57 57 58 59 59 59 59 58
54 53 54 57 59 58 56 56 56 56 57 56 57 57 56 57 57 45 43 43 46 55 58 50 44 42 44 50 45 45 48 56 55 54 54 55 56 58 58 59 61 60 60
49 51 53 53 55 56 59 58 57 57 57 57 56 57 57 57 58 59 60 60 51 55 52 58 50 46 44 48 54 55 55 54 53 53 53 55 57 57 58 58 58 57 56
49 50 54 54 53 53 57 58 59 59 58 59 58 59 57 57 58 53 53 59 58 51 50 59 58 57 56 56 56 56 56 55 54 54 54 54 55 56 56 57 57 58 55
52 53 54 54 56 58 56 54 44 45 43 42 44 54 58 48 43 42 41 40 40 40 55 56 56 56 56 56 55 55 56 53 54 54 54 54 53 54 54 56 57 55 53
54 53 53 54 56 55 56 56 56 50 42 41 40 41 42 47 40 40 40 40 39 41 57 58 57 57 57 57 57 56 55 55 54 54 53 53 53 53 53 54 54 54 53
56 49 53 55 55 55 56 59 60 59 59 60 44 46 40 40 40 40 39 40 56 51 59 58 58 58 58 58 58 57 57 56 56 55 54 53 53 53 53 53 54 52 52
55 54 56 55 57 57 60 60 61 60 60 61 60 48 46 39 39 39 39 57 59 60 60 59 59 59 58 58 58 56 55 56 54 55 55 54 53 53 53 54 54 41 43
55 50 53 59 59 58 60 60 60 60 60 60 61 62 60 53 58 59 59 60 60 60 61 60 60 59 58 57 57 57 57 57 57 57 56 56 55 54 53 53 53 53 53
58 56 49 60 60 60 60 60 61 60 60 61 62 61 45 62 62 62 62 61 60 61 61 61 62 61 59 58 58 58 58 58 58 58 57 56 56 54 55 54 54 54 53
59 58 59 60 60 60 61 61 60 60 61 61 62 60 35 59 62 62 62 62 63 62 63 61 60 60 61 60 60 60 60 60 60 59 58 57 56 55 55 53 52 53 53
60 59 59 60 59 51 57 60 60 60 61 62 63 63 60 61 62 62 62 63 63 63 63 62 61 61 62 62 62 61 61 61 62 61 59 58 56 55 54 51 47 49 51
59 59 60 59 58 59 60 60 61 51 62 63 63 63 63 63 63 62 63 64 64 64 64 64 63 62 63 63 63 63 62 61 62 61 59 57 56 51 51 51 43 46 49
59 60 59 59 59 59 60 61 62 63 63 63 63 63 64 64 64 64 64 64 64 64 64 65 64 64 63 61 60 62 55 39 51 46 57 56 55 51 48 42 43 46 49
59 60 60 60 60 61 61 62 62 62 63 64 64 64 64 64 65 65 65 65 64 65 65 65 65 64 64 64 63 50 38 37 44 35 52 55 51 47 44 40 41 47 49
MSLP
1016.80 1017.63 1018.51 1019.08 1019.84 1020.60 1021.15 1021.48 1021.83 1022.24 1022.38 1022.76 1023.08 1023.34 1023.67 1023.80 1023.94 1023.85 1023.76 1023.95 1023.90 1023.90 1023.85 1023.69 1023.45 1023.17 1022.75 1022.35 1021.96 1021.70 1021.42 1021.25 1020.57 1019.80 1019.49 1019.21 1019.15 1018.59 1018.11 1017.75 1016.91 1016.18 1015.27
1016.80 1017.56 1018.07 1018.84 1019.74 1020.45 1021.11 1021.65 1022.02 1022.32 1022.62 1023.15 1023.20 1023.54 1023.90 1024.06 1024.18 1024.10 1024.08 1024.19 1024.17 1024.08 1024.04 1023.82 1023.55 1023.26 1023.02 1022.78 1022.30 1022.18 1021.75 1021.50 1021.07 1020.05 1019.60 1019.19 1018.93 1018.68 1018.28 1017.61 1016.85 1016.02 1015.45
1016.35 1017.29 1018.17 1018.88 1019.58 1020.49 1021.14 1021.67 1022.12 1022.65 1022.90 1023.11 1023.67 1023.88 1024.02 1024.18 1024.40 1024.40 1024.40 1024.42 1024.42 1024.43 1024.43 1024.19 1023.88 1023.59 1023.11 1022.91 1022.59 1022.24 1021.78 1021.45 1020.87 1020.24 1019.44 1019.10 1018.85 1018.39 1018.01 1017.17 1016.53 1015.93 1015.07
1015.79 1016.83 1017.81 1018.64 1019.26 1020.12 1020.74 1021.58 1022.16 1022.73 1022.87 1023.50 1024.04 1024.07 1024.40 1024.55 1024.66 1024.73 1024.80 1024.85 1024.68 1024.63 1024.52 1024.42 1024.06 1023.71 1023.31 1023.09 1022.55 1022.43 1021.80 1021.53 1020.87 1020.25 1019.57 1019.01 1018.58 1018.20 1017.70 1016.89 1016.27 1015.63 1014.99
1015.34 1016.53 1017.77 1018.70 1019.26 1019.91 1020.91 1021.63 1022.22 1022.81 1023.12 1023.73 1024.06 1024.26 1024.58 1024.56 1024.61 1024.93 1024.97 1024.97 1024.84 1024.72 1024.50 1024.29 1023.98 1024.07 1023.89 1023.55 1023.01 1022.54 1022.21 1021.55 1020.91 1020.18 1019.48 1018.95 1018.47 1018.27 1017.76 1017.19 1016.59 1015.75 1014.92
1014.81 1016.24 1017.59 1018.64 1019.49 1020.20 1020.95 1021.68 1022.40 1023.08 1023.32 1023.85 1023.91 1024.38 1024.74 1024.72 1025.83 1025.87 1025.46 1025.23 1024.95 1024.65 1024.50 1024.33 1024.02 1023.75 1023.43 1023.25 1023.05 1022.87 1022.81 1022.06 1021.35 1020.50 1019.73 1019.20 1018.81 1018.49 1017.92 1017.58 1016.62 1015.78 1014.69
1014.56 1015.86 1016.96 1017.86 1018.53 1020.07 1020.88 1021.90 1022.28 1023.01 1023.39 1023.56 1024.19 1024.53 1025.03 1025.31 1026.04 1026.02 1025.87 1025.27 1025.15 1025.05 1024.66 1024.40 1023.93 1023.53 1023.43 1022.96 1022.51 1022.14 1021.69 1021.92 1021.89 1021.33 1020.37 1019.71 1019.21 1018.77 1018.50 1017.65 1016.92 1016.33 1015.33
1014.28 1015.52 1016.80 1017.54 1018.87 1020.03 1020.98 1021.73 1022.57 1023.06 1023.29 1023.83 1024.17 1024.67 1024.95 1025.41 1026.00 1026.15 1025.87 1025.18 1025.17 1025.07 1024.82 1024.61 1024.33 1024.04 1023.93 1023.85 1022.92 1022.12 1021.53 1021.12 1021.08 1020.87 1020.51 1019.98 1019.40 1019.03 1018.61 1017.82 1017.12 1016.05 1014.99
1014.02 1015.24 1016.34 1017.62 1018.80 1019.99 1020.91 1021.48 1022.50 1022.85 1023.29 1023.74 1024.09 1024.51 1024.85 1025.30 1025.86 1025.84 1025.43 1025.14 1025.07 1024.92 1024.72 1024.71 1024.54 1024.37 1024.62 1024.24 1023.27 1022.45 1021.76 1021.10 1020.80 1020.80 1020.60 1020.33 1019.94 1019.63 1019.24 1017.91 1016.55 1015.81 1015.02
1013.70 1014.81 1016.07 1017.22 1018.68 1019.68 1020.69 1021.40 1022.06 1022.58 1023.15 1023.66 1024.13 1024.58 1024.97 1025.13 1025.76 1025.74 1025.38 1025.00 1024.87 1024.68 1024.59 1024.53 1025.11 1024.92 1024.75 1024.30 1023.52 1022.85 1022.18 1021.73 1021.17 1020.53 1019.84 1019.32 1018.98 1018.58 1018.63 1018.06 1017.16 1016.29 1015.44
1013.91 1015.24 1016.57 1017.31 1018.56 1019.71 1020.66 1021.29 1021.89 1022.34 1023.07 1023.66 1023.99 1024.54 1024.92 1025.27 1025.43 1025.79 1025.78 1025.30 1025.03 1024.58 1024.21 1024.16 1024.22 1024.96 1024.73 1024.36 1023.92 1023.51 1023.33 1022.81 1021.36 1020.44 1019.71 1019.13 1018.77 1018.26 1017.79 1017.75 1017.49 1016.91 1016.28
1014.33 1015.43 1016.71 1017.78 1018.72 1019.68 1020.63 1021.34 1021.82 1022.29 1022.86 1023.35 1023.94 1024.33 1024.66 1024.91 1025.58 1025.69 1025.88 1025.81 1025.58 1024.95 1024.39 1024.33 1024.21 1025.00 1024.76 1024.27 1023.42 1023.95 1023.34 1022.30 1021.32 1020.55 1019.88 1019.36 1019.01 1018.62 1018.28 1018.00 1017.62 1017.08 1016.77
1015.05 1016.14 1016.97 1018.02 1018.74 1019.69 1020.45 1021.27 1021.75 1022.53 1022.65 1023.09 1023.35 1023.70 1024.17 1024.53 1024.73 1025.41 1025.58 1025.67 1025.37 1025.01 1024.47 1024.56 1024.89 1024.81 1024.28 1023.33 1023.82 1023.61 1022.79 1022.14 1021.51 1020.81 1020.30 1019.85 1019.57 1019.21 1018.76 1017.89 1017.16 1016.93 1016.62
1015.80 1017.06 1017.89 1018.28 1019.22 1019.74 1020.31 1021.17 1021.64 1022.23 1022.44 1022.77 1022.93 1023.41 1023.81 1024.16 1024.36 1024.31 1024.44 1024.15 1024.59 1024.23 1024.26 1023.80 1024.29 1024.30 1024.20 1023.87 1023.20 1022.85 1022.67 1022.47 1022.03 1021.31 1020.79 1020.34 1019.76 1019.15 1018.60 1018.29 1017.53 1017.16 1016.64
1015.99 1017.06 1018.26 1018.94 1019.04 1019.73 1020.53 1021.22 1021.86 1022.10 1022.32 1022.53 1022.55 1023.07 1023.53 1023.64 1023.90 1024.11 1024.59 1024.66 1024.70 1024.75 1024.67 1023.77 1023.72 1023.49 1023.32 1023.05 1022.86 1022.70 1022.51 1022.34 1021.97 1021.63 1021.10 1020.58 1020.01 1019.47 1018.92 1018.67 1018.07 1017.39 1017.04
1015.25 1017.02 1017.55 1018.34 1018.85 1019.42 1020.46 1021.53 1022.38 1022.58 1022.84 1023.04 1022.86 1023.03 1023.67 1023.81 1024.05 1024.64 1024.91 1024.91 1025.02 1024.94 1024.34 1023.74 1023.35 1023.23 1023.04 1022.87 1022.66 1022.47 1022.35 1022.27 1022.14 1021.78 1021.32 1020.89 1020.40 1019.92 1019.66 1019.01 1018.54 1018.12 1017.71
1015.10 1016.32 1017.32 1018.07 1018.45 1018.97 1019.84 1020.69 1021.23 1022.31 1022.89 1023.09 1023.43 1023.65 1023.62 1023.37 1024.20 1024.56 1024.65 1024.65 1024.79 1024.86 1024.02 1023.41 1023.12 1022.96 1022.82 1022.72 1022.54 1022.42 1022.30 1022.40 1022.34 1021.89 1021.52 1021.16 1020.77 1020.27 1020.03 1019.37 1018.98 1018.57 1018.11
1014.94 1015.72 1016.78 1017.44 1018.12 1018.70 1019.26 1019.73 1020.10 1020.77 1021.43 1021.95 1023.02 1023.37 1023.35 1023.57 1023.90 1024.16 1024.30 1024.50 1024.12 1024.14 1023.34 1022.92 1022.68 1022.56 1022.54 1022.48 1022.35 1022.24 1022.22 1022.11 1021.95 1021.83 1021.55 1021.32 1020.96 1020.52 1019.96 1019.53 1019.15 1018.97 1018.54
1014.90 1015.84 1016.47 1017.42 1017.92 1018.28 1018.75 1019.08 1019.52 1019.99 1020.50 1020.93 1021.70 1022.46 1022.74 1023.20 1023.53 1023.76 1023.94 1023.45 1022.73 1022.55 1022.35 1022.29 1022.28 1022.24 1022.25 1022.23 1022.18 1022.20 1022.18 1021.93 1022.02 1021.70 1021.35 1021.18 1020.94 1020.53 1020.00 1019.63 1019.23 1019.15 1018.87
1014.53 1015.38 1016.26 1016.94 1017.51 1018.02 1018.31 1018.67 1019.07 1019.30 1019.71 1020.14 1020.43 1020.65 1021.54 1022.30 1022.37 1022.27 1022.44 1022.27 1022.06 1021.88 1021.70 1021.69 1021.67 1021.78 1021.82 1021.91 1021.85 1021.78 1021.63 1021.39 1021.25 1021.13 1020.97 1020.87 1020.74 1020.52 1020.00 1019.68 1019.28 1018.93 1018.49
1013.95 1015.15 1015.93 1016.47 1017.05 1017.59 1017.94 1018.23 1018.50 1018.73 1018.92 1019.30 1019.52 1019.99 1020.54 1020.66 1020.66 1020.84 1020.97 1021.14 1021.21 1021.10 1021.06 1021.07 1021.02 1021.03 1021.25 1021.29 1021.23 1021.14 1020.95 1020.74 1020.63 1020.52 1020.37 1020.26 1020.24 1020.05 1019.95 1019.64 1019.22 1018.85 1018.48
1013.66 1014.63 1015.53 1015.92 1016.52 1017.19 1017.45 1017.85 1018.24 1018.31 1018.42 1018.68 1018.93 1019.46 1020.35 1020.37 1020.00 1020.11 1020.23 1020.29 1020.34 1020.39 1020.42 1020.52 1020.54 1020.50 1020.46 1020.45 1020.43 1020.31 1020.10 1019.87 1019.71 1019.65 1019.67 1019.75 1019.81 1019.76 1019.74 1019.62 1019.49 1018.79 1018.43
1013.55 1014.39 1015.09 1015.54 1016.13 1016.78 1017.34 1017.48 1017.68 1017.82 1017.96 1018.13 1018.34 1018.64 1019.27 1019.29 1019.26 1019.32 1019.38 1019.45 1019.53 1019.59 1019.64 1019.77 1019.79 1019.70 1019.63 1019.62 1019.58 1019.47 1019.23 1018.75 1018.46 1018.53 1018.69 1018.76 1018.94 1019.02 1019.16 1019.39 1019.70 1019.13 1018.44
1013.42 1014.18 1014.54 1015.01 1015.79 1016.38 1016.68 1016.91 1017.09 1017.30 1017.31 1017.51 1017.77 1018.02 1018.26 1018.41 1018.48 1018.54 1018.65 1018.63 1018.63 1018.62 1018.68 1018.78 1018.81 1018.75 1018.60 1018.57 1018.54 1018.46 1018.39 1018.20 1018.09 1017.94 1018.07 1018.12 1018.12 1018.50 1018.95 1018.81 1019.47 1019.17 1018.41
1013.31 1013.83 1014.33 1014.81 1015.35 1015.76 1016.01 1016.32 1016.43 1016.56 1016.75 1016.96 1017.13 1017.40 1017.57 1017.71 1017.74 1017.73 1017.81 1017.85 1017.84 1017.78 1017.66 1017.67 1017.71 1017.66 1017.63 1017.60 1017.62 1017.39 1017.31 1017.58 1017.65 1017.67 1017.62 1017.50 1017.71 1018.27 1018.65 1019.23 1019.19 1018.89 1018.19
1013.12 1013.58 1014.14 1014.59 1014.77 1015.05 1015.33 1015.57 1015.82 1016.01 1016.09 1016.24 1016.49 1016.70 1016.85 1016.95 1016.98 1016.98 1016.95 1016.97 1016.96 1016.85 1016.79 1016.72 1016.66 1016.65 1016.64 1016.60 1016.45 1016.48 1016.74 1016.90 1016.98 1017.28 1017.25 1017.00 1017.42 1017.94 1018.49 1018.84 1018.84 1018.24 1017.72
Wind_Speed
15 14 13 12 12 11 10 10 9 9 8 8 7 6 5 5 5 5 5 5 5 5 5 6 7 7 7 7 6 6 6 7 9 10 10 11 14 13 13 12 13 13 11
14 13 14 13 13 12 10 10 9 10 9 7 7 6 6 6 6 6 6 5 6 6 6 7 8 7 8 6 6 7 7 8 9 13 11 11 11 12 13 14 11 10 11
15 14 14 13 13 12 12 11 10 9 6 7 6 6 6 6 5 6 6 6 5 5 6 7 8 8 7 6 7 8 8 9 9 10 10 9 10 10 12 11 10 11 10
16 16 15 14 14 13 13 12 10 7 9 8 5 6 6 6 6 6 5 5 5 5 6 6 7 7 7 7 7 8 9 9 8 8 9 9 9 10 10 11 11 11 11
17 16 14 12 12 14 13 10 7 8 8 6 6 7 6 5 5 5 5 5 5 6 6 6 6 9 9 8 7 9 9 8 8 8 9 9 9 11 11 11 11 11 11
18 16 15 14 14 14 11 11 7 8 8 6 7 7 6 5 8 6 5 5 5 6 6 6 6 5 9 8 10 11 10 9 10 10 9 11 12 11 10 11 11 13 11
19 17 17 16 17 14 12 9 8 9 6 8 7 7 7 7 5 6 3 4 4 5 5 6 6 6 9 10 10 10 6 5 10 10 10 10 12 11 11 12 13 13 12
19 18 16 18 16 13 11 10 9 7 9 8 8 7 6 7 6 4 0 2 2 4 5 6 6 7 10 11 10 10 10 9 7 7 8 10 10 9 10 10 12 12 10
19 18 18 17 15 13 11 12 9 9 9 8 8 7 6 6 4 4 3 2 3 4 4 5 6 7 10 11 10 10 10 9 8 5 9 11 11 10 10 9 9 11 11
18 18 17 17 15 13 13 11 10 9 8 8 8 6 5 6 5 4 3 2 4 2 1 2 4 7 9 8 9 9 9 10 11 12 10 9 7 5 3 6 8 10 11
18 17 15 15 14 12 12 11 10 9 10 9 8 6 6 4 6 3 2 2 3 3 3 3 4 9 9 7 7 8 8 10 9 9 8 8 9 8 8 8 7 7 9
16 17 15 13 11 12 13 11 11 10 10 9 7 6 5 4 2 5 1 2 4 5 4 4 3 7 8 6 8 9 10 10 8 8 8 7 8 8 9 9 8 7 5
14 14 14 13 13 13 13 12 9 9 8 7 7 6 5 5 5 4 2 3 3 4 4 6 6 6 7 3 6 8 9 8 8 8 8 8 8 8 10 8 6 6 5
15 10 9 11 11 11 10 9 9 8 7 7 7 6 5 5 5 4 2 2 5 3 1 1 4 6 4 4 5 5 6 7 8 8 8 8 7 7 7 7 7 7 7
14 13 11 9 10 10 9 9 8 7 6 7 6 5 6 5 5 3 2 3 4 4 5 3 4 4 5 5 5 6 6 7 8 8 7 8 8 7 7 6 6 7 8
18 11 10 9 11 11 10 6 2 2 6 3 3 5 5 4 9 8 6 5 3 4 4 4 4 4 4 5 5 6 6 7 8 7 7 7 7 7 7 6 6 7 8
14 12 9 9 10 10 10 9 8 4 6 7 8 9 7 3 10 9 7 4 4 5 4 3 3 3 3 3 4 4 6 6 6 6 7 7 7 6 6 6 6 7 8
15 17 10 10 10 10 10 9 7 7 7 6 9 9 11 9 9 9 6 5 4 5 4 4 3 3 3 3 4 4 5 5 6 6 6 7 7 7 6 6 6 7 8
13 10 10 9 10 10 10 9 8 7 6 5 4 5 7 9 9 6 7 6 5 5 4 5 4 4 4 4 4 4 5 5 5 5 5 5 6 6 6 6 7 5 5
11 15 12 10 10 10 9 8 7 6 6 5 5 5 6 7 6 7 7 6 6 6 5 6 5 5 5 5 6 6 6 5 5 5 4 4 4 5 6 7 7 8 8
11 12 11 11 11 10 9 9 7 6 6 6 6 5 5 7 5 5 6 6 7 7 7 7 6 6 6 7 7 7 8 7 7 7 6 5 4 5 5 6 7 7 8
11 11 12 12 11 10 10 7 6 6 6 7 6 5 6 7 6 6 7 7 7 7 7 7 7 7 8 8 9 9 9 9 9 8 8 6 6 5 5 6 9 9 9
11 12 12 11 10 9 7 8 7 7 7 7 6 5 7 7 7 7 8 8 7 8 7 8 8 8 8 9 9 10 11 11 10 9 9 8 7 6 4 6 6 9 9
12 13 13 11 10 10 9 8 7 7 8 7 7 6 6 7 7 8 8 7 7 8 8 8 9 11 11 11 10 10 10 11 10 9 12 10 8 6 7 5 5 10 9
12 12 12 11 11 10 10 9 9 8 8 8 8 7 7 7 7 8 8 7 8 9 10 9 9 12 15 16 15 17 14 7 12 7 8 11 11 10 5 3 6 8 9
12 12 10 9 10 10 9 9 8 8 8 8 8 8 8 7 7 8 8 8 9 9 11 9 11 15 16 14 15 12 6 6 9 9 9 8 8 6 5 5 8 8 9
Wind_Direction
174 170 169 168 163 156 158 146 137 129 126 122 113 97 81 77 65 66 64 36 27 19 13 5 2 354 354 349 341 341 331 334 315 319 315 331 325 328 331 332 324 319 323
170 172 164 152 153 155 144 136 136 126 123 120 111 99 92 80 66 58 50 34 20 15 11 1 0 348 342 348 334 346 342 329 323 316 324 319 324 326 328 323 330 324 326
165 163 157 153 151 145 141 136 137 129 124 108 115 104 105 87 76 62 50 45 41 22 1 352 343 332 331 346 338 340 335 329 326 323 321 329 329 337 330 324 331 325 326
164 163 159 157 153 148 144 138 140 128 125 119 107 112 100 91 73 60 51 38 21 6 359 347 350 337 335 345 348 337 335 323 327 318 323 329 328 343 333 337 334 333 330
161 159 159 151 149 145 144 138 130 129 124 121 128 123 126 105 70 68 48 27 9 351 355 346 356 355 353 349 328 335 321 318 322 324 326 328 340 338 337 336 329 324 326
156 159 151 149 149 149 136 136 130 131 129 132 136 142 127 93 87 74 23 21 13 15 9 358 342 334 342 318 323 318 312 299 304 314 321 335 333 324 337 334 322 334 327
163 162 163 158 151 150 135 133 140 141 141 138 151 137 128 106 90 79 38 43 29 15 3 352 345 4 337 340 333 311 311 240 268 299 308 322 321 331 325 323 335 330 327
169 166 159 152 150 140 134 131 145 147 143 149 137 135 130 106 89 78 357 49 48 18 15 2 0 5 17 344 332 336 339 338 351 324 320 312 314 323 313 314 305 314 320
168 164 160 155 141 141 149 146 143 149 147 144 137 138 131 113 93 84 337 94 47 48 25 34 4 2 360 342 336 343 337 348 341 282 272 278 289 281 281 301 343 329 346
168 159 155 147 143 146 149 143 147 146 147 147 140 126 112 122 102 88 329 63 66 25 8 54 87 6 346 357 351 349 348 352 336 333 336 336 331 347 237 325 324 333 342
158 152 143 134 139 140 143 141 144 147 144 146 138 138 136 124 115 94 359 59 14 340 359 3 26 4 349 2 337 12 350 317 327 325 333 347 349 348 350 351 338 323 342
143 141 136 135 136 143 139 142 141 141 145 147 154 158 155 160 149 138 45 359 335 310 338 342 16 356 331 11 354 353 327 308 347 342 342 341 345 347 343 338 335 325 6
131 130 133 137 140 144 145 141 135 148 149 154 166 164 167 169 170 165 233 296 260 298 348 352 306 291 284 334 25 342 319 353 349 348 349 346 341 338 320 338 340 331 5
116 118 128 133 142 146 145 152 151 159 154 155 158 170 166 172 179 184 212 259 200 220 135 41 335 287 249 283 316 349 359 356 344 349 348 345 337 342 349 351 343 357 352
127 145 154 149 144 140 156 164 171 170 171 172 159 170 177 178 174 163 283 332 357 36 306 344 340 355 349 360 3 6 6 359 359 353 350 349 350 349 359 4 2 1 8
149 158 154 154 156 158 162 164 54 13 192 217 161 205 185 67 141 184 221 245 283 250 264 347 344 355 354 356 4 8 12 7 7 354 354 354 353 347 350 354 358 1 1
145 148 147 155 163 161 171 178 178 172 221 209 209 216 233 154 192 216 214 239 244 191 265 307 327 333 344 340 350 359 2 10 346 357 356 355 351 346 334 346 349 351 350
156 151 156 162 163 169 176 183 185 193 198 194 203 217 204 212 206 205 195 210 205 207 260 278 297 300 303 307 318 333 344 347 1 360 0 358 355 348 343 344 346 344 342
153 156 157 162 172 175 180 182 189 189 208 223 195 189 192 195 209 200 187 247 253 252 244 251 258 275 279 280 290 296 302 311 331 333 355 356 356 348 348 340 334 316 295
153 148 163 171 169 179 179 183 188 196 206 215 211 199 154 169 189 195 205 217 236 249 256 255 259 259 266 269 269 272 276 281 292 299 320 331 344 337 344 341 334 330 330
159 161 169 175 178 181 185 192 196 198 194 201 204 183 188 209 209 212 212 215 234 247 252 257 260 255 254 258 263 265 269 275 276 276 277 283 293 308 329 337 335 327 319
162 167 182 184 183 187 192 195 200 199 199 204 205 179 170 223 231 233 235 238 241 244 256 257 255 255 258 262 266 265 269 272 272 269 269 272 277 289 305 332 338 330 322
166 175 180 182 183 185 190 199 198 202 207 211 216 215 196 222 235 241 245 246 247 248 247 247 253 258 256 254 256 257 261 263 264 261 261 258 254 259 286 308 317 320 322
173 178 179 175 184 192 198 200 205 214 219 219 222 231 236 237 243 247 252 252 248 244 242 244 247 252 262 259 259 260 258 264 269 266 261 259 253 206 242 266 284 300 303
173 177 183 187 190 198 193 208 212 216 213 224 230 236 244 242 245 245 249 252 252 252 251 248 248 253 258 262 264 267 272 248 254 269 258 242 247 236 253 236 278 287 299
173 177 184 191 194 193 200 204 211 214 218 220 228 236 244 248 251 256 255 255 257 256 258 259 260 262 267 268 269 278 276 253 249 218 241 238 231 201 205 227 272 290 298